Simultaneous Nadir Overpasses (SNOs) Predictions

Prediction of SNOs between METOP-B and TERRA Satellite Orbit:

Table of predicted SNOs for the next 14.0 days since TLE Epoch: 8/24/2024
Index Date (METOP-B) Time (METOP-B) Lat,Lon (METOP-B) SZA (METOP-B ) Date (TERRA) Time (TERRA) Lat,Lon (TERRA) SZA (TERRA ) Distance(km) Time Diff (sec)
1 08/25/2024 11:46:37 -79.79,-159.89 110.33 08/25/2024 11:47:11 -79.80,-159.77 110.31 2.48 34
2 08/25/2024 12:37:09 80.05, 9.91 70.07 08/25/2024 12:36:25 80.05, 9.80 70.05 2.13 44
3 08/28/2024 02:16:55 -79.82, -17.22 109.37 08/28/2024 02:17:24 -79.82, -17.20 109.36 0.31 29
4 08/28/2024 03:07:30 79.99, 151.69 70.90 08/28/2024 03:06:40 79.99, 151.76 70.89 1.42 50
5 08/30/2024 16:47:13 -79.84, 125.36 108.40 08/30/2024 16:47:36 -79.84, 125.35 108.40 0.27 23
6 08/30/2024 17:37:48 80.00, -65.74 71.86 08/30/2024 17:36:52 80.00, -65.73 71.85 0.30 56
7 09/02/2024 07:17:32 -79.82, -92.43 107.48 09/02/2024 07:17:48 -79.82, -92.38 107.47 1.06 16
8 09/02/2024 08:08:06 80.01, 76.74 72.83 09/02/2024 08:07:03 80.01, 76.77 72.82 0.71 63
9 09/04/2024 21:47:47 -79.88, 50.54 106.42 09/04/2024 21:47:56 -79.87, 50.43 106.43 2.36 9



Historial Predications of SNOs between METOP-B and TERRA
